C&D Canal Bridge, Odessa DE USA current weather conditions

sailwx.info

Wind from 145

Air temperature 24.9° C
Dewpoint 29.6° C

Last reported at 2020-Aug-13 23:00 UTC.
Time now 2020-Aug-14 00:05 UTC

Location: N 39°33' W 075°39'.
View on Google Maps.

See reports from other nearby stations

  
Tides and Currents Weather Stations Pressure Air Temp Water Temp Dewpoint Dewpoint Depression Visibility Wind Speed Wind Dir Waves Ship Positions
date/time (UTC)wind fromknots sea level pressurealtimeterstation pressurevisibilityair tempwater tempwave heightnotes
2020-Aug-13 23:00 145 24.9
2020-Aug-13 22:55 120 0 gusting 6 24.9
2020-Aug-13 22:50 135 24.9
2020-Aug-13 22:45 105 4 gusting 8 24.9
2020-Aug-13 22:40 115 4 gusting 9 24.9
2020-Aug-13 22:35 105 5 gusting 9 24.9
2020-Aug-13 22:30 100 6 gusting 8 24.9
2020-Aug-13 22:25 115 6 gusting 7 24.9
2020-Aug-13 22:20 115 1 gusting 5 24.9
2020-Aug-13 22:15 130 24.8
2020-Aug-13 22:10 125 0 gusting 3 24.6
2020-Aug-13 22:05 135 24.6
2020-Aug-13 22:00 105 0 gusting 4 24.4
2020-Aug-13 21:55 120 1 gusting 5 24.2
2020-Aug-13 21:50 125 1 gusting 5 24.1
2020-Aug-13 21:45 115 0 gusting 8 24.1
2020-Aug-13 21:40 115 1 gusting 8 24.1
2020-Aug-13 21:35 100 2 gusting 7 24.1
2020-Aug-13 21:30 105 1 gusting 7 24.1
2020-Aug-13 21:25 095 5 gusting 8 24.2
2020-Aug-13 21:20 095 7 gusting 8 24.4
2020-Aug-13 21:15 095 1 gusting 8 24.6
2020-Aug-13 21:10 085 2 gusting 7 24.6
2020-Aug-13 21:05 110 1 gusting 7 24.6
2020-Aug-13 21:00 090 6 gusting 7 24.4
2020-Aug-13 20:55 095 6 gusting 7 24.4
2020-Aug-13 20:50 100 3 gusting 7 24.4
2020-Aug-13 20:45 100 3 gusting 7 24.4
2020-Aug-13 20:40 110 4 gusting 7 24.4
2020-Aug-13 20:35 110 5 gusting 7 24.4
2020-Aug-13 20:30 100 5 gusting 7 24.4
2020-Aug-13 20:25 100 5 gusting 6 24.4
2020-Aug-13 20:20 095 4 gusting 6 24.6
2020-Aug-13 20:15 080 4 gusting 5 24.4
2020-Aug-13 20:10 070 3 gusting 4 24.4
2020-Aug-13 20:05 085 3 gusting 5 24.2
2020-Aug-13 20:00 080 4 gusting 5 24.2
2020-Aug-13 19:55 085 1 gusting 3 24.2
2020-Aug-13 19:50 070 1 gusting 3 24.2
2020-Aug-13 19:45 055 2 gusting 3 24.2
2020-Aug-13 19:40 060 2 gusting 3 24.2
2020-Aug-13 19:35 030 2 gusting 4 24.2
2020-Aug-13 19:30 025 3 gusting 4 24.2
2020-Aug-13 19:25 020 2 gusting 4 24.2
2020-Aug-13 19:20 010 0 gusting 3 24.2
2020-Aug-13 19:15 020 1 gusting 3
2020-Aug-13 19:10 035 0 gusting 4
2020-Aug-13 19:05 045 3 gusting 4
2020-Aug-13 19:00 050 2 gusting 4
2020-Aug-13 18:55 040 2 gusting 3
2020-Aug-13 18:50 050 1 gusting 3
2020-Aug-13 18:45 040 2 gusting 3
2020-Aug-13 18:40 050 2 gusting 2
2020-Aug-13 18:35 055 0 gusting 2
2020-Aug-13 18:30 055 1 gusting 3
2020-Aug-13 18:25 085 0 gusting 3
2020-Aug-13 18:20 180 1 gusting 3 23.4
2020-Aug-13 18:15 340 1 gusting 3 23.4
2020-Aug-13 18:10 335 2 gusting 3 23.1
2020-Aug-13 18:05 340 1 gusting 3 23.1
2020-Aug-13 18:00 175 1 gusting 3 23.2
2020-Aug-13 17:55 175 1 gusting 4 23.2
2020-Aug-13 17:50 23.4
2020-Aug-13 17:45 330 2 gusting 4 23.4
2020-Aug-13 17:40 335 2 gusting 4 23.4
2020-Aug-13 17:35 315 2 gusting 4 23.2
2020-Aug-13 17:30 300 2 gusting 3 23.6
2020-Aug-13 17:25 325 1 gusting 3 23.4
2020-Aug-13 17:20 315 2 gusting 3 23.4
2020-Aug-13 17:15 315 2 gusting 4 23.4
2020-Aug-13 17:10 325 2 gusting 4 23.4
2020-Aug-13 17:05 23.4
2020-Aug-13 17:00 325 1 gusting 4 23.1
2020-Aug-13 16:55 335 2 gusting 4 22.9
2020-Aug-13 16:50 140 0 gusting 4 22.8
2020-Aug-13 16:45 060 0 gusting 4 22.6
2020-Aug-13 16:40 095 3 gusting 6 22.6
2020-Aug-13 16:35 080 4 gusting 6 22.4
2020-Aug-13 16:30 080 2 gusting 6 22.6
2020-Aug-13 16:25 100 5 gusting 7 22.4
2020-Aug-13 16:20 100 5 gusting 7 22.6
2020-Aug-13 16:15 100 5 gusting 10 22.8
2020-Aug-13 16:10 110 6 gusting 11 23.1
2020-Aug-13 16:05 120 7 gusting 11 23.9
2020-Aug-13 15:55 135 5 gusting 5 24.4
2020-Aug-13 15:50 135 4 gusting 6 24.6
2020-Aug-13 15:45 120 4 gusting 6 24.6
2020-Aug-13 15:40 115 5 gusting 6 24.8
2020-Aug-13 15:35 115 4 gusting 5 24.9
2020-Aug-13 15:30 080 2 gusting 4 25.2
2020-Aug-13 15:25 075 2 gusting 5 25.6
2020-Aug-13 15:20 020 3 gusting 5 25.9
2020-Aug-13 15:15 010 3 gusting 5 26.1
2020-Aug-13 15:10 025 3 gusting 5 26.1
2020-Aug-13 15:05 015 1 gusting 4 26.4
2020-Aug-13 15:00 015 2 gusting 5 26.4
2020-Aug-13 14:55 030 3 gusting 5 26.4
2020-Aug-13 14:50 030 2 gusting 3 26.4
2020-Aug-13 14:45 075 1 gusting 4 26.4
2020-Aug-13 14:40 055 1 gusting 4 26.4
2020-Aug-13 14:35 095 1 gusting 3 26.1
2020-Aug-13 14:30 080 2 gusting 3 26.2
2020-Aug-13 14:25 105 2 gusting 3 26.2
2020-Aug-13 14:20 130 2 gusting 4 26.2
2020-Aug-13 14:10 100 2 gusting 4 26.4
2020-Aug-13 14:05 090 2 gusting 4 26.6
2020-Aug-13 14:00 115 2 gusting 6 26.6
2020-Aug-13 13:55 140 0 gusting 6 26.4
2020-Aug-13 13:50 130 2 gusting 4 26.4
2020-Aug-13 13:45 145 1 gusting 3 26.4
2020-Aug-13 13:40 130 0 gusting 3 26.4
2020-Aug-13 13:35 140 26.2
2020-Aug-13 13:30 130 0 gusting 1 26.2
2020-Aug-13 13:25 130 0 gusting 2 26.2
2020-Aug-13 13:20 145 26.1
2020-Aug-13 13:15 150 0 gusting 3 26.1
2020-Aug-13 13:10 145 25.9
2020-Aug-13 13:05 130 25.9
2020-Aug-13 13:00 095 25.6
2020-Aug-13 12:55 095 1 gusting 3 25.4
2020-Aug-13 12:50 090 25.4
2020-Aug-13 12:45 115 1 gusting 3 25.4
2020-Aug-13 12:40 130 1 gusting 7 25.6
2020-Aug-13 12:35 140 2 gusting 7 25.8
2020-Aug-13 12:30 125 1 gusting 7 25.6
2020-Aug-13 12:25 120 0 gusting 4 25.4
2020-Aug-13 12:20 090 1 gusting 6 25.4
2020-Aug-13 12:15 140 1 gusting 6 25.6
2020-Aug-13 12:10 100 0 gusting 3 25.4
2020-Aug-13 12:05 065 0 gusting 2 25.2
2020-Aug-13 12:00 100 1 gusting 2 25.2
2020-Aug-13 11:55 080 1 gusting 3 25.1
2020-Aug-13 11:50 105 2 gusting 4 25.1
2020-Aug-13 11:45 085 3 gusting 4 24.9
2020-Aug-13 11:40 105 3 gusting 3 24.8
2020-Aug-13 11:35 090 2 gusting 3 24.6
2020-Aug-13 11:30 085 2 gusting 3 24.6
2020-Aug-13 11:25 095 2 gusting 3 24.6
2020-Aug-13 11:20 085 1 gusting 3 24.6
2020-Aug-13 11:15 115 2 gusting 3 24.4
2020-Aug-13 11:10 115 2 gusting 3 24.4
2020-Aug-13 11:05 115 1 gusting 2 24.4
2020-Aug-13 11:00 105 1 gusting 3 24.4
2020-Aug-13 10:55 090 1 gusting 5 24.6
2020-Aug-13 10:50 135 1 gusting 6 24.6
2020-Aug-13 10:45 140 3 gusting 6 24.6
2020-Aug-13 10:40 120 1 gusting 5 24.6
2020-Aug-13 10:35 090 1 gusting 2 24.4
2020-Aug-13 10:30 070 1 gusting 6 24.6
2020-Aug-13 10:25 065 0 gusting 6 24.6
2020-Aug-13 10:20 070 1 gusting 5 24.6
2020-Aug-13 10:15 075 0 gusting 3 24.1
2020-Aug-13 10:10 075 2 gusting 3 23.6
2020-Aug-13 10:05 080 2 gusting 3 23.8
2020-Aug-13 10:00 075 2 gusting 2 23.8
2020-Aug-13 09:55 070 2 gusting 2 23.8
2020-Aug-13 09:50 090 1 gusting 2 23.6
2020-Aug-13 09:45 090 1 gusting 2 23.6
2020-Aug-13 09:40 090 1 gusting 3 23.9
2020-Aug-13 09:35 100 0 gusting 3 23.9
2020-Aug-13 09:30 115 0 gusting 2 23.9
2020-Aug-13 09:25 065 0 gusting 1 24.1
2020-Aug-13 09:20 090 0 gusting 2 24.1
2020-Aug-13 09:15 070 0 gusting 2 24.1
2020-Aug-13 09:10 085 24.2
2020-Aug-13 09:05 105 24.1
2020-Aug-13 09:00 155 0 gusting 3 23.9
2020-Aug-13 08:55 150 23.8
2020-Aug-13 08:50 135 1 gusting 5 24.1
2020-Aug-13 08:45 070 23.9
2020-Aug-13 08:40 110 23.6
2020-Aug-13 08:35 100 23.9
2020-Aug-13 08:30 245 23.9
2020-Aug-13 08:25 240 23.9
2020-Aug-13 08:20 265 23.9
2020-Aug-13 08:15 260 23.9
2020-Aug-13 08:10 175 1 gusting 4 23.9
2020-Aug-13 08:05 170 1 gusting 5 23.8
2020-Aug-13 08:00 185 23.9
2020-Aug-13 07:55 100 23.9
2020-Aug-13 07:50 035 23.6
2020-Aug-13 07:45 025 0 gusting 2 23.9
2020-Aug-13 07:40 205 24.1
2020-Aug-13 07:35 315 23.9
2020-Aug-13 07:30 310 24.1
2020-Aug-13 07:25 015 0 gusting 3 24.1
2020-Aug-13 07:20 020 0 gusting 3 23.9
2020-Aug-13 07:15 020 0 gusting 0 23.9
2020-Aug-13 07:10 015 0 gusting 0 24.2
2020-Aug-13 07:05 010 24.4
2020-Aug-13 07:00 010 24.2
2020-Aug-13 06:55 190 0 gusting 3 24.4
2020-Aug-13 06:50 015 0 gusting 2 23.9
2020-Aug-13 06:45 010 0 gusting 2 23.8
2020-Aug-13 06:40 060 0 gusting 1 23.2
2020-Aug-13 06:35 090 23.1
2020-Aug-13 06:30 090 0 gusting 0 23.1
2020-Aug-13 06:25 100 23.1
2020-Aug-13 06:20 095 23.2
2020-Aug-13 06:15 075 23.4
2020-Aug-13 06:10 120 23.4
2020-Aug-13 06:05 100 23.1
2020-Aug-13 06:00 080 0 gusting 3 23.2
2020-Aug-13 05:55 060 2 gusting 3 23.1
2020-Aug-13 05:50 055 2 gusting 3 23.6
2020-Aug-13 05:45 025 0 gusting 3 23.8
2020-Aug-13 05:40 020 3 gusting 3 23.9
2020-Aug-13 05:35 015 0 gusting 2 23.9
2020-Aug-13 05:30 015 1 gusting 2 23.9
2020-Aug-13 05:25 045 23.9
2020-Aug-13 05:20 020 23.6
2020-Aug-13 05:15 035 0 gusting 1 23.4
2020-Aug-13 05:10 030 0 gusting 2 23.6
2020-Aug-13 05:05 045 23.4
2020-Aug-13 05:00 035 2 gusting 3 23.2
2020-Aug-13 04:55 025 3 gusting 3 23.2
2020-Aug-13 04:50 045 0 gusting 2 23.2
2020-Aug-13 04:45 055 0 gusting 0 23.4
2020-Aug-13 04:40 030 23.6
2020-Aug-13 04:35 060 23.6
2020-Aug-13 04:30 285 24.2
2020-Aug-13 04:25 305 24.2
2020-Aug-13 04:20 315 0 gusting 2 24.1
2020-Aug-13 04:15 305 0 gusting 2 23.9
2020-Aug-13 04:10 290 0 gusting 2 24.2
2020-Aug-13 04:05 155 23.9
2020-Aug-13 04:00 160 24.4
2020-Aug-13 03:55 290 24.4
2020-Aug-13 03:50 245 24.4
2020-Aug-13 03:45 185 0 gusting 2 23.9
2020-Aug-13 03:40 070 23.4
2020-Aug-13 03:35 095 0 gusting 1 23.8
2020-Aug-13 03:30 170 24.4
2020-Aug-13 03:25 300 0 gusting 2 24.2
2020-Aug-13 03:20 155 24.4
2020-Aug-13 03:15 325 0 gusting 2 24.4
2020-Aug-13 03:10 285 0 gusting 2 24.6
2020-Aug-13 03:05 295 24.4
2020-Aug-13 03:00 150 24.1
2020-Aug-13 02:55 100 0 gusting 1 23.8
2020-Aug-13 02:50 125 23.9
2020-Aug-13 02:45 160 1 gusting 3 24.1
2020-Aug-13 02:40 165 0 gusting 4 23.9
2020-Aug-13 02:35 150 0 gusting 4 23.9
2020-Aug-13 02:30 105 23.8
2020-Aug-13 02:25 120 0 gusting 5 23.9
2020-Aug-13 02:20 155 2 gusting 5 24.2
2020-Aug-13 02:15 175 3 gusting 4 24.2
2020-Aug-13 02:10 175 3 gusting 5 24.1
2020-Aug-13 02:05 165 2 gusting 5 24.4
2020-Aug-13 02:00 165 3 gusting 5 24.6
2020-Aug-13 01:55 180 2 gusting 5 24.6
2020-Aug-13 01:50 175 3 gusting 5 24.8
2020-Aug-13 01:45 135 0 gusting 2 24.6
2020-Aug-13 01:40 195 25.2
2020-Aug-13 01:35 330 2 gusting 4 25.1
2020-Aug-13 01:30 310 1 gusting 4 25.1
2020-Aug-13 01:25 310 2 gusting 4 25.1
2020-Aug-13 01:20 320 1 gusting 2 25.2
2020-Aug-13 01:15 265 0 gusting 2 25.1
2020-Aug-13 01:10 275 0 gusting 3 24.9
2020-Aug-13 01:05 285 2 gusting 4 24.9
2020-Aug-13 01:00 280 3 gusting 6 24.9
2020-Aug-13 00:55 290 3 gusting 6 24.9
2020-Aug-13 00:50 285 4 gusting 6 24.9
2020-Aug-13 00:45 260 3 gusting 5 25.1
2020-Aug-13 00:40 275 2 gusting 6 25.1
2020-Aug-13 00:35 255 4 gusting 6 25.2
2020-Aug-13 00:30 265 3 gusting 5 25.4
2020-Aug-13 00:25 235 2 gusting 5 25.4
2020-Aug-13 00:20 255 4 gusting 5 25.4
2020-Aug-13 00:15 255 3 gusting 5 25.4
2020-Aug-13 00:10 260 4 gusting 5 25.6
2020-Aug-13 00:05 235 3 gusting 4 25.6
2020-Aug-13 00:00 265 3 gusting 4 25.6
2020-Aug-12 23:55 270 2 gusting 3 25.9
2020-Aug-12 23:50 270 2 gusting 3 25.9
2020-Aug-12 23:45 235 1 gusting 3 25.9
2020-Aug-12 23:40 315 2 gusting 2 26.2
2020-Aug-12 23:35 265 0 gusting 3 26.2
2020-Aug-12 23:30 275 1 gusting 3 26.1
2020-Aug-12 23:25 300 2 gusting 3 26.1
2020-Aug-12 23:20 295 1 gusting 3 26.1
2020-Aug-12 23:15 320 1 gusting 3 26.1
2020-Aug-12 23:10 325 1 gusting 2 26.4
2020-Aug-12 23:05 305 0 gusting 6 26.2
2020-Aug-12 23:00 265 0 gusting 8 26.1
2020-Aug-12 22:55 220 5 gusting 8 26.1
2020-Aug-12 22:50 215 5 gusting 7 26.4
2020-Aug-12 22:45 205 3 gusting 7 26.6
2020-Aug-12 22:40 170 3 gusting 6 25.9
2020-Aug-12 22:35 155 3 gusting 5 25.9
2020-Aug-12 22:30 110 1 gusting 4 25.9
2020-Aug-12 22:25 110 1 gusting 4 25.8
2020-Aug-12 22:20 095 2 gusting 4 25.9
2020-Aug-12 22:15 135 2 gusting 5 26.1
2020-Aug-12 22:10 105 3 gusting 5 26.1
2020-Aug-12 22:05 130 3 gusting 6 26.6
2020-Aug-12 22:00 205 3 gusting 7 26.9
2020-Aug-12 21:55 205 3 gusting 7 26.9
2020-Aug-12 21:50 210 4 gusting 9 27.1
2020-Aug-12 21:45 190 5 gusting 9 27.4
2020-Aug-12 21:40 190 6 gusting 8 27.4
2020-Aug-12 21:35 190 4 gusting 9 27.6
2020-Aug-12 21:30 175 4 gusting 10 26.6
2020-Aug-12 21:25 140 4 gusting 10 26.6
2020-Aug-12 21:20 150 4 gusting 7 27.2
2020-Aug-12 21:15 190 4 gusting 8 26.8
2020-Aug-12 21:10 160 5 gusting 8 26.4
2020-Aug-12 21:05 150 4 gusting 7 26.4
2020-Aug-12 21:00 155 4 gusting 6 26.6
2020-Aug-12 20:55 145 3 gusting 5 26.9
2020-Aug-12 20:50 155 3 gusting 6 27.2
2020-Aug-12 20:45 180 3 gusting 6 27.2
2020-Aug-12 20:40 150 2 gusting 6 27.2
2020-Aug-12 20:35 170 3 gusting 6 27.1
2020-Aug-12 20:30 170 2 gusting 6 26.6
2020-Aug-12 20:25 155 4 gusting 6 26.4
2020-Aug-12 20:20 115 4 gusting 5 26.1
2020-Aug-12 20:15 125 3 gusting 8 26.1
2020-Aug-12 20:10 100 4 gusting 8 26.1
2020-Aug-12 20:05 060 3 gusting 6 26.6
2020-Aug-12 20:00 050 2 gusting 6 26.6
2020-Aug-12 19:55 085 5 gusting 6 26.6
2020-Aug-12 19:50 120 4 gusting 8 26.6
2020-Aug-12 19:45 080 5 gusting 9 26.9
2020-Aug-12 19:40 080 6 gusting 9 27.1
2020-Aug-12 19:35 185 3 gusting 6 27.6
2020-Aug-12 19:30 275 2 gusting 9 27.8
2020-Aug-12 19:25 190 4 gusting 9 27.6
2020-Aug-12 19:20 180 4 gusting 9 27.4
2020-Aug-12 19:15 195 5 gusting 9 27.4
2020-Aug-12 19:10 185 2 gusting 6 27.4
2020-Aug-12 19:05 205 3 gusting 5 26.8
2020-Aug-12 19:00 210 3 gusting 5 26.6
2020-Aug-12 18:55 230 1 gusting 3 26.6
2020-Aug-12 18:50 280 26.4
2020-Aug-12 18:45 310 26.1
2020-Aug-12 18:40 305 25.9
2020-Aug-12 18:35 305 26.1
2020-Aug-12 18:30 305 26.1
2020-Aug-12 18:25 215 6 gusting 10 26.1
2020-Aug-12 18:20 295 25.9
2020-Aug-12 18:15 305 0 gusting 14 26.2
2020-Aug-12 18:10 310 26.8
2020-Aug-12 18:05 185 7 gusting 10 26.6
2020-Aug-12 18:00 295 2 gusting 9 26.2
2020-Aug-12 17:55 295 2 gusting 14 26.1
2020-Aug-12 17:50 185 7 gusting 20 25.1
2020-Aug-12 17:45 205 13 gusting 20 25.2
2020-Aug-12 17:40 210 12 gusting 18 25.4
2020-Aug-12 17:35 215 11 gusting 17 25.6
2020-Aug-12 17:30 220 12 gusting 17 25.9
2020-Aug-12 17:25 155 5 gusting 19 25.6
2020-Aug-12 17:20 115 9 gusting 23 25.1
2020-Aug-12 17:15 135 17 gusting 25 25.2
2020-Aug-12 17:10 245 4 gusting 25 24.8
2020-Aug-12 17:05 120 10 gusting 15 25.4
2020-Aug-12 17:00 260 26.6
2020-Aug-12 16:55 260 27.8
2020-Aug-12 16:50 265 28.9
2020-Aug-12 16:45 130 4 gusting 5 29.4
2020-Aug-12 16:40 055 1 gusting 2 30.2
2020-Aug-12 16:35 070 1 gusting 3 30.4
2020-Aug-12 16:30 075 1 gusting 8 30.4
2020-Aug-12 16:25 155 2 gusting 8 31.1
2020-Aug-12 16:20 080 0 gusting 2 31.9
2020-Aug-12 16:15 030 0 gusting 3 32.0
2020-Aug-12 16:10 155 1 gusting 4 31.1
2020-Aug-12 16:05 115 0 gusting 4 31.1
2020-Aug-12 16:00 035 0 gusting 4 30.9
2020-Aug-12 15:55 055 1 gusting 5 31.1
2020-Aug-12 15:50 085 1 gusting 5 31.6
2020-Aug-12 15:45 075 2 gusting 5 33.0
2020-Aug-12 15:40 120 4 gusting 5 32.5
2020-Aug-12 15:30 145 3 gusting 5 32.8
2020-Aug-12 15:25 115 2 gusting 5 32.8
2020-Aug-12 15:20 160 2 gusting 4 32.5
2020-Aug-12 15:15 130 3 gusting 4 31.8
2020-Aug-12 15:10 075 1 gusting 4 31.9
2020-Aug-12 15:05 065 1 gusting 4 32.4
2020-Aug-12 15:00 035 1 gusting 3 32.0
2020-Aug-12 14:55 130 1 gusting 5 31.6
2020-Aug-12 14:50 110 1 gusting 5 31.4
2020-Aug-12 14:45 215 0 gusting 5 30.6
2020-Aug-12 14:40 230 1 gusting 5 30.9
2020-Aug-12 14:35 225 2 gusting 7 30.9
2020-Aug-12 14:30 165 1 gusting 7 30.1
2020-Aug-12 14:25 095 1 gusting 5 30.4
2020-Aug-12 14:20 250 1 gusting 5 31.1
2020-Aug-12 14:15 060 1 gusting 4 31.4
2020-Aug-12 14:10 150 0 gusting 4 30.4
2020-Aug-12 14:05 215 0 gusting 5 30.1
2020-Aug-12 14:00 185 2 gusting 5 29.6
2020-Aug-12 13:55 185 1 gusting 3 29.6
2020-Aug-12 13:50 185 1 gusting 3 29.4
2020-Aug-12 13:45 320 0 gusting 4 29.1
2020-Aug-12 13:40 225 28.9
2020-Aug-12 13:35 230 1 gusting 5 28.9
2020-Aug-12 13:30 185 0 gusting 3 28.8
2020-Aug-12 13:25 210 1 gusting 3 28.4
2020-Aug-12 13:20 210 0 gusting 5 27.9
2020-Aug-12 13:15 320 2 gusting 5 28.1
2020-Aug-12 13:10 320 2 gusting 4 28.1
2020-Aug-12 13:05 310 2 gusting 4 28.1
2020-Aug-12 13:00 270 2 gusting 3 27.8
2020-Aug-12 12:55 295 1 gusting 4 27.8
2020-Aug-12 12:50 195 0 gusting 5 27.4
2020-Aug-12 12:45 195 2 gusting 6 27.8
2020-Aug-12 12:40 165 3 gusting 7 27.4
2020-Aug-12 12:35 165 2 gusting 8 26.9
2020-Aug-12 12:30 150 2 gusting 8 26.6
2020-Aug-12 12:25 170 3 gusting 6 26.4
2020-Aug-12 12:20 180 2 gusting 6 26.2
2020-Aug-12 12:15 175 3 gusting 6 26.4
2020-Aug-12 12:10 210 2 gusting 6 26.4
2020-Aug-12 12:05 160 2 gusting 6 26.1
2020-Aug-12 12:00 150 2 gusting 7 26.2
2020-Aug-12 11:55 170 4 gusting 7 26.6
2020-Aug-12 11:50 145 1 gusting 6 26.6
2020-Aug-12 11:45 235 0 gusting 4 26.6
2020-Aug-12 11:40 200 2 gusting 4 26.6
2020-Aug-12 11:35 260 26.4
2020-Aug-12 11:30 210 0 gusting 4 26.2
2020-Aug-12 11:25 220 1 gusting 4 26.1
2020-Aug-12 11:20 260 1 gusting 2 26.1
2020-Aug-12 11:15 240 0 gusting 6 26.1
2020-Aug-12 11:10 145 1 gusting 6 25.9
2020-Aug-12 11:05 160 3 gusting 7 26.1
2020-Aug-12 11:00 175 4 gusting 7 25.9
2020-Aug-12 10:55 175 3 gusting 8 25.9
2020-Aug-12 10:50 185 3 gusting 8 25.9
2020-Aug-12 10:45 195 2 gusting 6 25.9
2020-Aug-12 10:40 140 2 gusting 6 25.6
2020-Aug-12 10:35 100 1 gusting 4 25.9
2020-Aug-12 10:30 270 0 gusting 3 26.2
2020-Aug-12 10:25 240 0 gusting 3 26.1
2020-Aug-12 10:20 250 2 gusting 3 26.1
2020-Aug-12 10:15 240 1 gusting 3 26.4
2020-Aug-12 10:10 205 1 gusting 3 26.1
2020-Aug-12 10:05 295 2 gusting 3 26.1
2020-Aug-12 10:00 255 1 gusting 2 25.9
2020-Aug-12 09:55 235 1 gusting 3 26.1
2020-Aug-12 09:50 210 1 gusting 3 25.9
2020-Aug-12 09:45 210 2 gusting 4 26.2
2020-Aug-12 09:40 205 2 gusting 4 26.1
2020-Aug-12 09:35 230 0 gusting 3 26.1
2020-Aug-12 09:30 315 1 gusting 3 26.1
2020-Aug-12 09:25 315 2 gusting 3 25.9
2020-Aug-12 09:20 295 1 gusting 3 25.8
2020-Aug-12 09:15 295 0 gusting 5 25.6
2020-Aug-12 09:10 250 3 gusting 5 25.6
2020-Aug-12 09:05 255 2 gusting 4 25.6
2020-Aug-12 09:00 270 2 gusting 4 25.6
2020-Aug-12 08:55 255 2 gusting 4 25.4
2020-Aug-12 08:50 260 3 gusting 4 25.4
2020-Aug-12 08:45 250 2 gusting 6 25.6
2020-Aug-12 08:40 265 3 gusting 6 25.4
2020-Aug-12 08:35 275 3 gusting 5 25.4
2020-Aug-12 08:30 265 3 gusting 4 25.4
2020-Aug-12 08:25 270 3 gusting 5 25.2
2020-Aug-12 08:20 270 3 gusting 6 25.4
2020-Aug-12 08:15 260 4 gusting 6 25.4
2020-Aug-12 08:10 280 4 gusting 6 25.4
2020-Aug-12 08:05 285 3 gusting 5 25.4
2020-Aug-12 08:00 285 2 gusting 3 25.4
2020-Aug-12 07:55 270 2 gusting 3 25.4
2020-Aug-12 07:50 295 2 gusting 3 25.6
2020-Aug-12 07:45 270 1 gusting 3 25.6
2020-Aug-12 07:40 265 1 gusting 4 25.6
2020-Aug-12 07:35 250 2 gusting 4 25.4
2020-Aug-12 07:30 230 2 gusting 4 25.6
2020-Aug-12 07:25 235 2 gusting 4 25.6
2020-Aug-12 07:20 240 2 gusting 4 25.6
2020-Aug-12 07:15 240 1 gusting 4 25.6
2020-Aug-12 07:10 250 3 gusting 5 25.6
2020-Aug-12 07:05 255 4 gusting 5 25.6
2020-Aug-12 07:00 255 3 gusting 5 25.6
2020-Aug-12 06:55 260 3 gusting 5 25.6
2020-Aug-12 06:50 265 2 gusting 5 25.6
2020-Aug-12 06:45 250 3 gusting 4 25.6
2020-Aug-12 06:40 235 3 gusting 5 25.8
2020-Aug-12 06:35 250 3 gusting 5 25.6
2020-Aug-12 06:30 250 3 gusting 6 25.8
2020-Aug-12 06:25 235 4 gusting 6 25.8
2020-Aug-12 06:20 230 4 gusting 6 25.8
2020-Aug-12 06:15 255 4 gusting 6 25.8
2020-Aug-12 06:10 240 3 gusting 6 25.8
2020-Aug-12 06:05 245 4 gusting 7 25.9
2020-Aug-12 06:00 255 4 gusting 8 25.9
2020-Aug-12 05:55 245 5 gusting 8 25.9
2020-Aug-12 05:50 255 5 gusting 7 25.9
2020-Aug-12 05:45 255 5 gusting 7 25.9
2020-Aug-12 05:40 255 4 gusting 8 25.9
2020-Aug-12 05:35 255 6 gusting 8 25.9
2020-Aug-12 05:30 245 5 gusting 7 25.9
2020-Aug-12 05:25 255 4 gusting 8 25.9
2020-Aug-12 05:20 250 6 gusting 8 25.9
2020-Aug-12 05:15 245 5 gusting 8 25.9
2020-Aug-12 05:10 235 4 gusting 8 25.9
2020-Aug-12 05:05 235 5 gusting 7 25.9
2020-Aug-12 05:00 245 4 gusting 7 26.1
2020-Aug-12 04:55 235 5 gusting 8 26.1
2020-Aug-12 04:50 245 5 gusting 8 26.1
2020-Aug-12 04:45 245 3 gusting 7 26.2
2020-Aug-12 04:40 240 4 gusting 7 26.2
2020-Aug-12 04:35 240 4 gusting 7 26.2
2020-Aug-12 04:30 235 4 gusting 6 26.2
2020-Aug-12 04:25 245 3 gusting 6 26.4
2020-Aug-12 04:20 245 4 gusting 6 26.4
2020-Aug-12 04:15 240 4 gusting 6 26.4
2020-Aug-12 04:10 240 5 gusting 6 26.4
2020-Aug-12 04:05 240 4 gusting 7 26.4
2020-Aug-12 04:00 245 5 gusting 7 26.6
2020-Aug-12 03:55 235 5 gusting 8 26.6
2020-Aug-12 03:50 240 5 gusting 8 26.6
2020-Aug-12 03:45 245 5 gusting 8 26.6
2020-Aug-12 03:40 250 5 gusting 8 26.8
2020-Aug-12 03:35 250 5 gusting 9 26.8
2020-Aug-12 03:30 240 5 gusting 9 26.8
2020-Aug-12 03:25 245 5 gusting 9 26.8
2020-Aug-12 03:20 235 6 gusting 9 26.9
2020-Aug-12 03:15 235 6 gusting 9 26.9
2020-Aug-12 03:10 240 5 gusting 8 26.9
2020-Aug-12 03:05 245 5 gusting 8 26.9
2020-Aug-12 03:00 240 5 gusting 8 26.9
2020-Aug-12 02:55 240 6 gusting 8 27.1
2020-Aug-12 02:50 230 6 gusting 8 27.1
2020-Aug-12 02:45 240 4 gusting 6 27.1
2020-Aug-12 02:40 225 4 gusting 6 27.1
2020-Aug-12 02:35 220 4 gusting 6 27.1
2020-Aug-12 02:30 230 4 gusting 5 27.1
2020-Aug-12 02:25 210 4 gusting 5 27.1
2020-Aug-12 02:20 205 4 gusting 5 27.1
2020-Aug-12 02:15 200 4 gusting 6 27.2
2020-Aug-12 02:10 195 4 gusting 6 27.4
2020-Aug-12 02:05 215 3 gusting 5 27.4
2020-Aug-12 02:00 200 3 gusting 5 27.6
2020-Aug-12 01:55 200 3 gusting 5 27.6
2020-Aug-12 01:50 185 4 gusting 5 27.8
2020-Aug-12 01:45 210 3 gusting 4 27.6
2020-Aug-12 01:40 210 3 gusting 4 27.6
2020-Aug-12 01:35 210 3 gusting 5 27.6
2020-Aug-12 01:30 205 3 gusting 5 27.8
2020-Aug-12 01:25 190 3 gusting 5 27.6
2020-Aug-12 01:20 195 2 gusting 5 27.6
2020-Aug-12 01:15 165 2 gusting 4 26.8
2020-Aug-12 01:10 145 1 gusting 4 26.6
2020-Aug-12 01:05 155 2 gusting 4 27.1
2020-Aug-12 01:00 175 2 gusting 4 27.4
2020-Aug-12 00:55 195 2 gusting 4 28.6
2020-Aug-12 00:50 200 1 gusting 3 28.8
2020-Aug-12 00:45 205 2 gusting 3 28.8
2020-Aug-12 00:40 205 1 gusting 3 28.8
2020-Aug-12 00:35 200 1 gusting 4 28.6
2020-Aug-12 00:30 200 3 gusting 5 28.6
2020-Aug-12 00:25 205 2 gusting 5 28.8
2020-Aug-12 00:20 190 3 gusting 6 28.6
2020-Aug-12 00:15 195 3 gusting 6 28.6
2020-Aug-12 00:10 190 4 gusting 6 28.8
2020-Aug-12 00:05 195 4 gusting 6 28.9
2020-Aug-12 00:00 185 4 gusting 6 28.9